EHI
0 0 0 0 0 0 0 0 0 0 0 0 0 0 0 0 0 0 0 0 0 0 0 0 0 0 0 0 0 0 0 0 0 0 0 1 2 3
0 0 0 0 0 0 0 0 0 0 0 0 0 0 0 0 0 0 0 0 0 0 0 0 0 0 0 0 0 0 0 0 0 0 0 0 1 2
0 0 0 0 0 0 0 0 0 0 0 0 0 0 0 0 0 0 0 0 0 0 0 0 0 0 0 0 0 0 0 0 0 0 0 0 0 1
0 0 0 0 0 0 0 0 0 0 0 0 0 0 0 0 0 0 0 0 0 0 0 0 0 0 0 0 0 0 0 0 0 0 0 0 0 0
0 0 0 0 0 0 0 0 0 0 0 0 0 0 0 0 0 0 0 0 0 0 0 0 0 0 0 0 0 0 0 0 0 0 0 0 0 0
0 0 0 0 0 0 0 0 0 0 0 0 0 0 0 0 0 0 0 0 0 0 0 0 0 0 0 0 0 0 0 0 0 0 0 0 0 0
0 0 0 0 0 0 0 0 0 0 0 0 0 0 0 0 0 0 0 0 0 0 0 0 0 0 0 0 0 0 0 0 0 0 0 0 0 0
0 0 0 0 0 0 0 0 0 0 0 0 0 0 0 0 0 0 0 0 0 0 0 0 0 0 0 0 0 0 0 0 0 0 0 0 0 0
0 0 0 0 0 0 0 0 0 0 0 0 0 0 0 0 0 0 0 0 0 0 0 0 0 0 0 0 0 0 0 0 0 0 0 0 0 0
0 0 0 0 0 0 0 0 0 0 0 0 0 0 0 0 0 0 0 0 0 0 0 0 0 0 0 0 0 0 0 0 0 0 0 0 0 0
0 0 0 0 0 0 0 0 0 0 0 0 0 0 0 0 0 0 0 0 0 0 0 0 0 0 0 0 0 0 0 0 0 0 0 0 0 0
0 0 0 0 0 0 0 0 0 0 0 0 0 0 0 0 0 0 0 0 0 0 0 0 0 0 0 0 0 0 0 0 0 0 0 0 0 0
0 0 0 0 0 0 0 0 0 0 0 0 0 0 0 0 0 0 0 0 0 0 0 0 0 0 0 0 0 0 0 0 0 0 0 0 0 0
0 0 0 0 0 0 0 0 0 0 0 0 0 0 0 0 0 0 0 0 0 0 0 0 0 0 0 0 0 0 0 0 0 0 0 0 0 0
0 0 0 0 0 0 0 0 0 0 0 0 0 0 0 0 0 0 0 0 0 0 0 0 0 0 0 0 0 0 0 0 0 0 0 0 0 0
0 0 0 0 0 0 0 0 0 0 0 0 0 0 0 0 0 0 0 0 0 0 0 0 0 0 0 0 0 0 0 0 0 0 0 0 0 0
0 0 0 0 0 0 0 0 0 0 0 0 0 0 0 0 0 0 0 0 0 0 0 0 0 0 0 0 0 0 0 0 0 0 0 0 0 0
0 0 0 0 0 0 0 0 0 0 0 0 0 0 0 0 0 0 0 0 0 0 0 0 0 0 0 0 0 0 0 0 0 0 0 0 0 0
0 0 0 0 0 0 0 0 0 0 0 0 0 0 0 0 0 0 0 0 0 0 0 0 0 0 0 0 0 0 0 0 0 0 0 0 0 0
0 0 0 0 0 0 0 0 0 0 0 0 0 0 0 0 0 0 0 0 0 0 0 0 0 0 0 0 0 0 0 0 0 0 0 0 0 0
0 0 0 0 0 0 0 0 0 0 0 0 0 0 0 0 0 0 0 0 0 0 0 0 0 0 0 0 0 0 0 0 0 0 0 0 0 0
0 0 0 0 0 0 0 0 0 0 0 0 0 0 0 0 0 0 0 0 0 0 0 0 0 0 0 0 0 0 0 0 0 0 0 0 0 0
0 0 0 0 0 0 0 0 0 0 0 0 0 0 0 0 0 0 0 0 0 0 0 0 0 0 0 0 0 0 0 0 0 0 0 0 0 0
Wind_Speed
10 10 10 10 10 10 11 12 14 15 14 14 13 12 11 10 10 12 14 13 14 15 17 18 20 20 20 20 20 19 18 16 16 16 17 18 24 27
9 11 11 11 10 11 12 12 12 13 14 12 13 14 15 13 14 15 15 16 18 19 21 20 20 21 21 20 20 19 17 15 14 14 14 15 19 22
12 13 13 14 12 11 12 12 12 11 14 13 13 14 17 16 14 14 14 14 12 15 17 18 18 19 20 20 19 18 17 15 14 12 13 13 14 18
14 14 15 13 15 13 12 13 12 12 13 16 14 14 16 15 15 15 14 12 12 13 13 16 18 18 18 17 16 15 13 11 11 11 11 12 13 14
14 15 15 15 15 13 13 12 11 11 12 13 14 12 13 13 14 14 15 11 12 11 11 14 15 15 14 13 12 12 11 11 11 10 11 10 10 11
14 15 15 15 15 14 12 13 12 12 12 12 12 12 12 14 12 11 10 9 9 9 9 8 8 10 12 12 12 12 11 11 11 11 11 10 10 10
15 15 15 16 18 15 12 12 12 11 11 11 12 12 13 12 10 8 8 8 8 7 6 6 6 7 8 12 14 14 13 13 13 14 14 13 13 12
15 14 14 16 16 17 19 20 18 16 14 13 12 13 15 14 11 8 7 8 6 3 4 5 4 6 6 7 6 8 12 14 16 17 17 17 16 15
14 13 12 13 16 15 15 18 18 21 21 16 15 15 15 13 11 10 8 8 5 1 2 4 4 6 5 5 7 10 13 17 19 20 21 20 20 18
14 15 15 15 14 14 15 15 16 15 14 10 10 11 11 11 9 8 6 3 1 2 2 4 3 4 5 5 7 12 16 19 22 23 23 23 22 20
15 15 16 16 15 15 15 15 15 12 9 8 9 9 10 8 5 2 2 2 2 2 2 3 3 4 4 4 7 13 17 18 20 22 24 24 22 20
13 14 16 15 16 17 14 11 11 9 6 4 4 5 5 5 6 3 2 1 1 0 1 2 3 3 3 3 5 8 9 10 9 13 20 23 23 16
11 11 10 15 16 15 11 7 6 5 3 2 3 4 4 5 6 5 5 4 3 2 3 3 2 2 2 4 4 7 7 5 3 8 16 21 20 13
11 9 10 13 11 10 6 5 4 2 2 2 3 4 5 5 6 7 8 8 7 6 6 4 2 3 3 3 4 6 8 9 9 11 12 17 16 13
10 15 14 12 8 6 10 8 5 4 3 4 5 6 6 6 5 5 6 7 10 10 9 10 7 7 7 6 5 7 7 10 11 12 12 11 10 10
10 11 10 7 6 6 6 6 6 6 5 6 6 5 5 5 5 5 5 5 7 9 12 13 12 11 10 11 10 11 10 8 10 13 15 15 14 13
10 6 6 5 6 6 6 6 6 6 6 6 6 6 6 6 6 6 6 7 8 8 8 8 10 12 15 12 11 11 11 11 11 12 15 17 15 14
9 7 7 7 6 6 6 6 7 7 7 7 7 7 6 6 6 6 7 8 8 8 7 6 5 7 10 14 17 11 11 12 11 13 15 17 16 14
8 8 7 7 6 6 6 6 7 7 7 7 7 7 6 6 6 7 7 8 9 9 10 9 8 9 13 12 13 16 11 11 12 14 14 15 15 12
8 8 7 7 6 6 6 6 6 7 7 7 7 6 6 6 7 8 8 10 10 11 12 12 11 12 13 11 9 12 16 12 12 14 14 15 16 20
9 8 8 7 6 6 5 6 6 6 7 6 6 7 6 7 7 8 10 12 11 11 12 12 11 12 11 11 12 14 15 18 16 12 12 14 14 13
9 8 8 8 7 6 5 5 5 6 6 6 6 6 6 6 8 9 9 10 10 11 12 11 12 11 11 13 14 15 14 15 18 22 20 12 8 9
9 8 8 8 7 6 5 6 6 5 5 6 6 6 6 6 7 8 9 10 10 11 11 11 11 11 12 12 13 13 17 16 14 15 18 26 31 29
Wind_Direction
289 291 291 297 293 293 292 289 290 290 287 289 286 287 290 286 285 279 276 273 267 267 267 268 269 270 270 269 270 270 270 271 272 268 254 239 227 221
287 291 292 292 297 294 289 287 283 281 282 283 285 284 287 284 281 279 277 275 265 259 259 261 263 264 266 264 263 262 261 263 263 261 251 242 230 221
292 293 295 297 294 294 292 286 282 280 279 281 280 281 281 280 280 278 278 275 271 258 253 254 257 259 261 259 258 255 253 252 254 255 249 241 232 222
298 300 299 299 296 293 289 287 286 283 279 281 280 280 279 279 276 275 275 274 276 272 260 257 257 255 254 253 252 248 245 244 247 250 248 241 231 225
301 300 299 298 294 291 291 289 286 281 277 278 281 283 282 279 279 276 276 278 279 277 264 252 252 253 251 249 248 242 236 233 235 238 242 243 237 228
300 297 295 293 292 293 290 285 281 279 278 278 281 282 281 280 276 277 280 283 284 284 274 262 251 249 248 246 244 242 236 233 232 232 231 233 234 231
300 298 296 296 291 285 282 281 282 280 280 280 281 282 281 282 281 281 281 285 282 265 256 248 237 238 234 233 236 239 241 239 236 233 229 225 224 223
302 302 299 292 290 288 280 279 281 282 283 282 282 281 283 285 285 280 275 273 268 229 246 250 237 245 248 250 243 241 244 245 243 237 229 223 218 215
303 299 295 294 293 288 289 287 282 278 275 277 279 280 282 281 279 274 264 261 258 177 228 263 241 245 253 261 265 263 258 253 247 239 229 220 214 210
301 297 295 294 293 294 296 291 286 283 279 279 280 284 286 285 276 268 266 253 213 202 227 269 271 265 271 274 272 272 269 260 249 238 226 215 207 202
307 303 302 300 298 293 291 289 287 287 282 277 284 297 304 311 307 270 223 216 226 198 205 270 286 287 281 280 292 291 284 272 250 230 215 203 193 188
306 303 300 297 298 296 292 286 285 292 307 314 320 331 343 6 15 19 359 303 277 209 45 302 297 305 295 294 307 314 303 288 245 205 190 180 171 179
304 304 305 307 306 305 299 288 286 295 322 0 9 7 14 28 34 35 27 14 13 28 357 317 322 327 319 308 319 338 349 4 66 125 141 146 154 167
309 312 317 324 332 346 353 9 4 3 48 43 36 32 32 38 42 44 47 49 47 40 16 12 11 2 357 1 351 351 17 33 59 84 101 110 112 109
320 327 335 347 359 22 36 36 42 49 47 47 44 38 34 40 47 51 56 60 57 48 40 41 48 46 47 42 29 21 32 40 55 74 82 87 94 98
334 335 344 11 34 34 35 43 46 42 38 46 46 44 43 48 47 44 49 56 62 55 47 47 49 55 60 54 53 51 48 53 61 72 76 72 69 71
334 348 10 19 31 35 38 44 45 44 45 47 49 50 50 49 48 49 58 63 64 62 58 55 59 64 57 51 56 54 57 60 62 73 80 76 66 67
355 12 17 20 26 31 36 42 42 43 47 48 48 50 49 49 54 56 60 65 66 62 59 54 58 75 71 53 38 55 60 62 63 70 79 83 77 68
12 15 16 18 22 29 37 44 46 48 48 52 54 51 49 52 57 60 62 65 64 61 57 52 53 67 74 67 41 37 61 69 71 70 71 78 81 76
11 11 12 14 21 28 38 45 47 50 48 49 51 53 54 54 59 63 65 72 72 70 67 61 59 63 71 76 72 54 49 67 78 82 84 84 85 87
4 5 8 12 18 27 39 50 53 51 49 47 48 51 55 62 70 74 76 73 75 76 76 76 83 89 90 87 80 74 64 59 66 81 94 96 95 92
1 1 5 11 17 23 34 49 57 56 51 47 46 51 56 63 69 74 78 79 79 81 84 88 92 91 87 86 88 90 88 84 73 66 61 68 95 102
356 357 2 8 15 21 32 48 55 54 50 45 46 53 61 64 67 73 78 83 87 92 94 94 92 89 87 87 89 89 87 84 79 75 71 73 82 94